Home   Weather   Zerbst/Anhalt   Past weeks

Flag for Germany Past Weather in Zerbst/Anhalt, Saxony-Anhalt, Germany — Yesterday and Last 2 Weeks

Now
23 °F

Scattered clouds.


Feels Like: 17 °F
Forecast: 23 / 34 °F
Wind: 5 mph from South

Location: Leipzig-Schkeuditz

Current Time: Dec 4, 2016 at 9:22:49 am

Latest Report: Dec 4, 2016 at 8:50 am


Visibility: 3 mi

Pressure: 30.39 "Hg

Humidity: 93%

Dew Point: 21 °F

Location of Zerbst/AnhaltLocation

Past Weather in Zerbst/Anhalt — Graph

°F

Zerbst/Anhalt Temperature Yesterday

Maximum temperature yesterday: 36 °F (at 12:20 pm)
Minimum temperature yesterday: 23 °F (at 5:50 am)
Average temperature yesterday: 28 °F

High & Low Weather Summary for the Past Weeks

 TemperatureHumidityPressure
High55 °F (Nov 22, 1:20 pm)100% (Nov 23, 1:20 am)30.57 "Hg (Nov 23, 1:20 am)
Low21 °F (Nov 29, 6:50 am)54% (Nov 20, 2:20 pm)29.59 "Hg (Nov 20, 1:50 pm)
Average38 °F86%30.10 "Hg
* Reported Nov 19 8:20 am — Dec 4 8:20 am, Zerbst/Anhalt, Weather by CustomWeather, © 2016

Note: Actual official high and low records may vary slightly from our data, if they occured in-between our weather recording intervals... More about our weather records

Advertising

Zerbst/Anhalt Weather History for the Previous 24 Hours

Scroll right to see more
 ConditionsComfort  
Time TempWeatherWind HumidityBarometerVisibility
8:20 am
Sun, Dec 4
21 °FScattered clouds.6 mph100%30.39 "Hg3 mi
7:50 am21 °FIce fog.5 mph93%30.39 "Hg3 mi
7:20 am21 °FLight fog.2 mph100%30.39 "Hg4 mi
6:50 am21 °FLight fog.6 mph100%30.36 "Hg4 mi
6:20 am21 °FPassing clouds.5 mph93%30.36 "Hg6 mi
5:50 am21 °FPassing clouds.3 mph100%30.36 "Hg5 mi
5:20 am23 °FPassing clouds.5 mph93%30.36 "Hg5 mi
4:50 am23 °FPassing clouds.3 mph100%30.36 "Hg4 mi
4:20 am23 °FClear.6 mph100%30.36 "Hg4 mi
3:50 am23 °FLight fog.3 mph100%30.36 "Hg3 mi
3:20 am23 °FIce fog.3 mph100%30.36 "Hg2 mi
2:50 am23 °FCold.5 mph93%30.36 "Hg1 mi
2:20 am23 °FClear.2 mph100%30.36 "Hg6 mi
1:50 am23 °FClear.5 mph100%30.36 "Hg10 mi
1:20 am25 °FClear.5 mph93%30.36 "Hg6 mi
12:50 am23 °FClear.5 mph100%30.36 "Hg6 mi
12:20 am25 °FClear.3 mph93%30.36 "Hg10 mi
11:50 pm
Sat, Dec 3
25 °FClear.3 mph93%30.36 "Hg10 mi
11:20 pm25 °FPassing clouds.5 mph93%30.36 "HgN/A
10:50 pm25 °FClear.3 mph100%30.36 "Hg10 mi
10:20 pm27 °FClear.3 mph93%30.36 "Hg10 mi
9:50 pm27 °FClear.3 mph100%30.36 "Hg10 mi
9:20 pm27 °FClear.3 mph100%30.36 "Hg10 mi
8:50 pm27 °FClear.6 mph100%30.33 "Hg10 mi
8:20 pm28 °FClear.5 mph93%30.33 "Hg10 mi
7:50 pm28 °FClear.6 mph93%30.33 "Hg10 mi
7:20 pm28 °FClear.5 mph93%30.33 "Hg10 mi
6:50 pm28 °FClear.5 mph93%30.33 "Hg10 mi
6:20 pm28 °FClear.5 mph93%30.33 "Hg10 mi
5:50 pm28 °FClear.3 mph93%30.33 "Hg10 mi
5:20 pm28 °FClear.3 mph93%30.30 "Hg10 mi
4:50 pm30 °FClear.3 mph93%30.30 "Hg10 mi
4:20 pm32 °FClear.3 mph87%30.30 "Hg10 mi
3:50 pm34 °FSunny.3 mph87%30.30 "Hg10 mi
3:20 pm36 °FSunny.2 mph81%30.30 "Hg10 mi
2:50 pm36 °FSunny.5 mph81%30.30 "Hg10 mi
2:20 pm36 °FSunny.3 mph81%30.30 "Hg10 mi
1:50 pm36 °FPassing clouds.3 mph81%30.30 "HgN/A
1:20 pm36 °FPassing clouds.3 mph81%30.30 "HgN/A
12:50 pm36 °FPassing clouds.5 mph81%30.30 "HgN/A
12:20 pm36 °FPassing clouds.3 mph81%30.30 "HgN/A
11:50 am34 °FSunny.2 mph87%30.30 "Hg10 mi
11:20 am34 °FSunny.3 mph81%30.30 "Hg10 mi
10:50 am32 °FSunny.3 mph87%30.30 "Hg10 mi
10:20 am30 °FSunny.3 mph86%30.30 "Hg10 mi
9:50 am30 °FSunny.2 mph86%30.30 "Hg10 mi
9:20 am28 °FSunny.2 mph86%30.30 "Hg10 mi
Weather by CustomWeather, © 2016

See weather overviewHow to use our weather pages